Location: Sweet Grass
(48.9965°N, 111.9649°W)
Time: 08:14:06
(UTC+00:00)

CUBESAT XI-V - Visible Passes

Search period start: 01 April 2023 00:00
Search period end: 11 April 2023 00:00
Orbit: 665 x 687 km, 98.1° (Epoch: 30 March)

Date Brightness Start Highest point End Pass type
(mag) Time Alt. Az. Time Alt. Az. Time Alt. Az.
01 Apr ? 08:10:10 22° NNE 08:10:10 22° NNE 08:12:24 10° N visible
01 Apr ? 09:48:29 19° NW 09:48:29 19° NW 09:49:58 10° NNW visible
02 Apr ? 08:44:58 29° N 08:44:58 29° N 08:47:22 10° N visible
02 Apr ? 10:23:18 12° NW 10:23:18 12° NW 10:23:51 10° NW visible
03 Apr ? 07:41:27 16° NE 07:41:27 16° NE 07:43:36 10° NNE visible
03 Apr ? 09:19:46 28° NNW 09:19:46 28° NNW 09:22:01 10° NNW visible
04 Apr ? 08:16:14 26° NNE 08:16:14 26° NNE 08:18:56 10° N visible
04 Apr ? 09:54:33 21° NW 09:54:33 21° NW 09:56:19 10° NNW visible
05 Apr ? 08:51:01 35° N 08:51:01 35° N 08:53:49 10° N visible
05 Apr ? 10:29:20 13° NW 10:29:20 13° NW 10:30:02 10° NW visible
06 Apr ? 07:47:29 18° NE 07:47:29 18° NE 07:50:11 10° NNE visible
06 Apr ? 09:25:48 32° NNW 09:25:48 32° NNW 09:28:22 10° NNW visible
07 Apr ? 08:22:15 30° NE 08:22:15 30° NE 08:25:23 10° N visible
07 Apr ? 10:00:34 22° NW 10:00:34 22° NW 10:02:35 10° NNW visible
08 Apr ? 07:18:42 11° ENE 07:19:10 11° NE 07:20:37 10° NE visible
08 Apr ? 08:57:01 42° N 08:57:01 42° N 09:00:11 10° N visible
08 Apr ? 10:35:21 12° WNW 10:35:21 12° WNW 10:36:07 10° NW visible
09 Apr ? 07:53:28 21° NE 07:53:28 21° NE 07:56:41 10° NNE visible
09 Apr ? 09:31:47 35° NW 09:31:47 35° NW 09:34:40 10° NNW visible
10 Apr ? 08:28:13 36° NE 08:28:13 36° NE 08:31:45 10° N visible
10 Apr ? 10:06:32 22° WNW 10:06:32 22° WNW 10:08:47 10° NW visible
